Time,TemperatureF,DewpointF,PressureIn,WindDirection,WindDirectionDegrees,WindSpeedMPH,WindSpeedGustMPH,Humidity,HourlyPrecipIn,Conditions,Clouds,dailyrainin,SoftwareType,DateUTC
2013-01-31 00:04:00,29.9,23.9,29.75,West,272,8.0,9.0,78,0.00,,,0.00,Wunderground v.1.15,2013-01-31 05:04:00,
2013-01-31 00:08:00,29.9,23.6,29.75,WNW,288,8.0,13.0,77,0.00,,,0.00,Wunderground v.1.15,2013-01-31 05:08:00,
2013-01-31 00:14:00,29.8,23.5,29.75,West,270,9.0,16.0,77,0.00,,,0.00,Wunderground v.1.15,2013-01-31 05:14:00,
2013-01-31 00:20:00,29.7,23.4,29.76,West,281,8.0,8.0,77,0.00,,,0.00,Wunderground v.1.15,2013-01-31 05:20:00,
2013-01-31 00:26:00,29.6,23.6,29.77,West,267,7.0,8.0,78,0.00,,,0.00,Wunderground v.1.15,2013-01-31 05:26:00,
2013-01-31 00:32:00,29.5,22.6,29.77,WNW,283,7.0,13.0,75,0.00,,,0.00,Wunderground v.1.15,2013-01-31 05:32:00,
2013-01-31 00:38:00,29.5,22.9,29.77,West,266,6.0,13.0,76,0.00,,,0.00,Wunderground v.1.15,2013-01-31 05:38:00,
2013-01-31 00:44:00,29.5,22.9,29.78,WNW,285,6.0,6.0,76,0.00,,,0.00,Wunderground v.1.15,2013-01-31 05:44:00,
2013-01-31 00:50:00,29.4,22.8,29.78,West,265,5.0,11.0,76,0.00,,,0.00,Wunderground v.1.15,2013-01-31 05:50:00,
2013-01-31 00:56:00,29.5,22.9,29.78,WNW,283,6.0,11.0,76,0.00,,,0.00,Wunderground v.1.15,2013-01-31 05:56:00,
2013-01-31 01:02:00,29.4,22.5,29.79,West,276,6.0,11.0,75,0.00,,,0.00,Wunderground v.1.15,2013-01-31 06:02:00,
2013-01-31 01:08:00,29.4,22.8,29.79,West,259,7.0,11.0,76,0.00,,,0.00,Wunderground v.1.15,2013-01-31 06:08:00,
2013-01-31 01:14:00,29.3,21.1,29.79,WSW,240,9.0,11.0,71,0.00,,,0.00,Wunderground v.1.15,2013-01-31 06:14:00,
2013-01-31 01:20:00,29.3,22.7,29.80,West,273,9.0,11.0,76,0.00,,,0.00,Wunderground v.1.15,2013-01-31 06:20:00,
2013-01-31 01:26:00,29.3,21.4,29.80,WNW,291,7.0,11.0,72,0.00,,,0.00,Wunderground v.1.15,2013-01-31 06:26:00,
2013-01-31 01:32:00,29.2,21.0,29.81,West,262,8.0,9.0,71,0.00,,,0.00,Wunderground v.1.15,2013-01-31 06:32:00,
2013-01-31 01:38:00,29.1,21.2,29.81,West,264,8.0,10.0,72,0.00,,,0.00,Wunderground v.1.15,2013-01-31 06:38:00,
2013-01-31 01:44:00,29.1,20.9,29.81,WNW,294,8.0,12.0,71,0.00,,,0.00,Wunderground v.1.15,2013-01-31 06:44:00,
2013-01-31 01:50:00,29.1,21.5,29.81,NW,306,7.0,8.0,73,0.00,,,0.00,Wunderground v.1.15,2013-01-31 06:50:00,
2013-01-31 01:56:00,29.1,21.5,29.82,WNW,291,6.0,8.0,73,0.00,,,0.00,Wunderground v.1.15,2013-01-31 06:56:00,
2013-01-31 02:02:00,29.0,21.4,29.82,West,279,6.0,6.0,73,0.00,,,0.00,Wunderground v.1.15,2013-01-31 07:02:00,
2013-01-31 02:08:00,29.1,21.2,29.82,WSW,254,6.0,6.0,72,0.00,,,0.00,Wunderground v.1.15,2013-01-31 07:08:00,
2013-01-31 02:14:00,29.0,21.1,29.83,WNW,298,6.0,15.0,72,0.00,,,0.00,Wunderground v.1.15,2013-01-31 07:14:00,
2013-01-31 02:20:00,29.0,21.4,29.82,West,269,7.0,7.0,73,0.00,,,0.00,Wunderground v.1.15,2013-01-31 07:20:00,
2013-01-31 02:26:00,29.0,21.1,29.83,WNW,288,7.0,10.0,72,0.00,,,0.00,Wunderground v.1.15,2013-01-31 07:26:00,
2013-01-31 02:32:00,28.9,21.7,29.83,West,280,6.0,7.0,74,0.00,,,0.00,Wunderground v.1.15,2013-01-31 07:32:00,
2013-01-31 02:38:00,29.0,21.4,29.84,West,269,6.0,10.0,73,0.00,,,0.00,Wunderground v.1.15,2013-01-31 07:38:00,
2013-01-31 02:44:00,29.0,21.7,29.84,West,278,7.0,8.0,74,0.00,,,0.00,Wunderground v.1.15,2013-01-31 07:44:00,
2013-01-31 02:50:00,29.0,21.7,29.84,WNW,284,5.0,5.0,74,0.00,,,0.00,Wunderground v.1.15,2013-01-31 07:50:00,
2013-01-31 02:56:00,29.0,21.1,29.84,West,262,5.0,7.0,72,0.00,,,0.00,Wunderground v.1.15,2013-01-31 07:56:00,
2013-01-31 03:02:00,29.0,21.4,29.84,WNW,282,6.0,6.0,73,0.00,,,0.00,Wunderground v.1.15,2013-01-31 08:02:00,
2013-01-31 03:08:00,29.0,21.4,29.84,WNW,292,5.0,6.0,73,0.00,,,0.00,Wunderground v.1.15,2013-01-31 08:08:00,
2013-01-31 03:14:00,29.0,21.7,29.84,West,267,5.0,7.0,74,0.00,,,0.00,Wunderground v.1.15,2013-01-31 08:14:00,
2013-01-31 03:20:00,29.0,21.7,29.84,West,271,6.0,6.0,74,0.00,,,0.00,Wunderground v.1.15,2013-01-31 08:20:00,
2013-01-31 03:26:00,29.0,21.4,29.84,WSW,246,7.0,9.0,73,0.00,,,0.00,Wunderground v.1.15,2013-01-31 08:26:00,
2013-01-31 03:32:00,29.1,21.8,29.85,WSW,250,7.0,8.0,74,0.00,,,0.00,Wunderground v.1.15,2013-01-31 08:32:00,
2013-01-31 03:38:00,29.1,21.2,29.85,WSW,258,7.0,13.0,72,0.00,,,0.00,Wunderground v.1.15,2013-01-31 08:38:00,
2013-01-31 03:44:00,29.1,21.8,29.85,WSW,251,7.0,7.0,74,0.00,,,0.00,Wunderground v.1.15,2013-01-31 08:44:00,
2013-01-31 03:50:00,29.1,22.2,29.85,West,259,5.0,5.0,75,0.00,,,0.00,Wunderground v.1.15,2013-01-31 08:50:00,
2013-01-31 03:56:00,29.0,22.4,29.85,West,260,5.0,5.0,76,0.00,,,0.00,Wunderground v.1.15,2013-01-31 08:56:00,
2013-01-31 04:02:00,29.1,22.5,29.85,West,273,5.0,6.0,76,0.00,,,0.00,Wunderground v.1.15,2013-01-31 09:02:00,
2013-01-31 04:08:00,29.0,22.4,29.85,WNW,296,4.0,6.0,76,0.00,,,0.00,Wunderground v.1.15,2013-01-31 09:08:00,
2013-01-31 04:14:00,28.9,22.3,29.85,West,266,4.0,8.0,76,0.00,,,0.00,Wunderground v.1.15,2013-01-31 09:14:00,
2013-01-31 04:20:00,28.8,22.2,29.85,WNW,290,5.0,6.0,76,0.00,,,0.00,Wunderground v.1.15,2013-01-31 09:20:00,
2013-01-31 04:26:00,28.7,22.4,29.85,West,268,5.0,7.0,77,0.00,,,0.00,Wunderground v.1.15,2013-01-31 09:26:00,
2013-01-31 04:32:00,28.7,22.4,29.85,West,270,5.0,6.0,77,0.00,,,0.00,Wunderground v.1.15,2013-01-31 09:32:00,
2013-01-31 04:38:00,28.7,22.1,29.85,WSW,254,7.0,9.0,76,0.00,,,0.00,Wunderground v.1.15,2013-01-31 09:38:00,
2013-01-31 04:44:00,28.5,20.6,29.85,WNW,284,8.0,8.0,72,0.00,,,0.00,Wunderground v.1.15,2013-01-31 09:44:00,
2013-01-31 04:50:00,28.4,20.2,29.86,West,267,8.0,8.0,71,0.00,,,0.00,Wunderground v.1.15,2013-01-31 09:50:00,
2013-01-31 04:56:00,28.3,20.1,29.86,NW,310,9.0,16.0,71,0.00,,,0.00,Wunderground v.1.15,2013-01-31 09:56:00,
2013-01-31 05:02:00,28.2,20.3,29.86,NW,304,7.0,7.0,72,0.00,,,0.00,Wunderground v.1.15,2013-01-31 10:02:00,
2013-01-31 05:08:00,28.1,19.9,29.87,West,273,6.0,8.0,71,0.00,,,0.00,Wunderground v.1.15,2013-01-31 10:08:00,
2013-01-31 05:14:00,28.1,20.2,29.87,WNW,288,6.0,8.0,72,0.00,,,0.00,Wunderground v.1.15,2013-01-31 10:14:00,
2013-01-31 05:20:00,28.0,20.1,29.87,WNW,289,5.0,5.0,72,0.00,,,0.00,Wunderground v.1.15,2013-01-31 10:20:00,
2013-01-31 05:26:00,27.9,20.4,29.87,West,263,6.0,8.0,73,0.00,,,0.00,Wunderground v.1.15,2013-01-31 10:26:00,
2013-01-31 05:32:00,27.8,19.9,29.87,WSW,254,7.0,8.0,72,0.00,,,0.00,Wunderground v.1.15,2013-01-31 10:32:00,
2013-01-31 05:38:00,27.8,20.3,29.88,West,274,6.0,8.0,73,0.00,,,0.00,Wunderground v.1.15,2013-01-31 10:38:00,
2013-01-31 05:44:00,27.8,20.6,29.88,West,270,5.0,6.0,74,0.00,,,0.00,Wunderground v.1.15,2013-01-31 10:44:00,
2013-01-31 05:50:00,27.8,20.9,29.88,West,264,4.0,13.0,75,0.00,,,0.00,Wunderground v.1.15,2013-01-31 10:50:00,
2013-01-31 05:56:00,27.7,21.1,29.89,West,279,5.0,13.0,76,0.00,,,0.00,Wunderground v.1.15,2013-01-31 10:56:00,
2013-01-31 06:02:00,27.2,20.6,29.89,WNW,289,7.0,7.0,76,0.00,,,0.00,Wunderground v.1.15,2013-01-31 11:02:00,
2013-01-31 06:08:00,26.9,20.7,29.89,WNW,290,7.0,13.0,77,0.00,,,0.00,Wunderground v.1.15,2013-01-31 11:08:00,
2013-01-31 06:14:00,26.9,21.0,29.90,WNW,282,6.0,7.0,78,0.00,,,0.00,Wunderground v.1.15,2013-01-31 11:14:00,
2013-01-31 06:20:00,26.7,19.8,29.90,West,275,5.0,12.0,75,0.00,,,0.00,Wunderground v.1.15,2013-01-31 11:20:00,
2013-01-31 06:26:00,26.7,19.5,29.91,West,259,7.0,12.0,74,0.00,,,0.00,Wunderground v.1.15,2013-01-31 11:26:00,
2013-01-31 06:32:00,26.7,19.2,29.90,WNW,284,5.0,6.0,73,0.00,,,0.00,Wunderground v.1.15,2013-01-31 11:32:00,
2013-01-31 06:38:00,26.7,18.6,29.91,WNW,299,5.0,12.0,71,0.00,,,0.00,Wunderground v.1.15,2013-01-31 11:38:00,
2013-01-31 06:44:00,26.7,17.9,29.91,West,262,6.0,6.0,69,0.00,,,0.00,Wunderground v.1.15,2013-01-31 11:44:00,
2013-01-31 06:50:00,26.6,17.8,29.91,WNW,288,5.0,5.0,69,0.00,,,0.00,Wunderground v.1.15,2013-01-31 11:50:00,
2013-01-31 06:56:00,26.5,18.0,29.91,WNW,300,5.0,7.0,70,0.00,,,0.00,Wunderground v.1.15,2013-01-31 11:56:00,
2013-01-31 07:02:00,26.5,18.0,29.92,WNW,295,4.0,7.0,70,0.00,,,0.00,Wunderground v.1.15,2013-01-31 12:02:00,
2013-01-31 07:08:00,26.5,18.0,29.92,NW,306,3.0,7.0,70,0.00,,,0.00,Wunderground v.1.15,2013-01-31 12:08:00,
2013-01-31 07:14:00,26.4,17.6,29.92,WNW,303,3.0,3.0,69,0.00,,,0.00,Wunderground v.1.15,2013-01-31 12:14:00,
2013-01-31 07:20:00,26.3,17.5,29.92,NW,304,3.0,3.0,69,0.00,,,0.00,Wunderground v.1.15,2013-01-31 12:20:00,
2013-01-31 07:26:00,26.2,17.4,29.92,WNW,300,2.0,4.0,69,0.00,,,0.00,Wunderground v.1.15,2013-01-31 12:26:00,
2013-01-31 07:32:00,26.2,17.7,29.93,West,275,2.0,4.0,70,0.00,,,0.00,Wunderground v.1.15,2013-01-31 12:32:00,
2013-01-31 07:38:00,26.2,17.7,29.92,West,281,3.0,4.0,70,0.00,,,0.00,Wunderground v.1.15,2013-01-31 12:38:00,
2013-01-31 07:44:00,26.2,18.1,29.92,West,273,3.0,4.0,71,0.00,,,0.00,Wunderground v.1.15,2013-01-31 12:44:00,
2013-01-31 07:50:00,26.1,18.0,29.92,WNW,300,2.0,3.0,71,0.00,,,0.00,Wunderground v.1.15,2013-01-31 12:50:00,
2013-01-31 07:56:00,26.1,18.0,29.93,NW,306,2.0,3.0,71,0.00,,,0.00,Wunderground v.1.15,2013-01-31 12:56:00,
2013-01-31 08:02:00,26.1,18.0,29.93,WNW,297,1.0,4.0,71,0.00,,,0.00,Wunderground v.1.15,2013-01-31 13:02:00,
2013-01-31 08:08:00,26.1,18.3,29.93,WNW,296,2.0,4.0,72,0.00,,,0.00,Wunderground v.1.15,2013-01-31 13:08:00,
2013-01-31 08:14:00,26.1,18.0,29.94,WNW,291,1.0,5.0,71,0.00,,,0.00,Wunderground v.1.15,2013-01-31 13:14:00,
2013-01-31 08:20:00,26.1,18.3,29.94,WNW,291,1.0,1.0,72,0.00,,,0.00,Wunderground v.1.15,2013-01-31 13:20:00,
2013-01-31 08:26:00,26.0,18.5,29.94,WNW,291,1.0,1.0,73,0.00,,,0.00,Wunderground v.1.15,2013-01-31 13:26:00,
2013-01-31 08:32:00,26.1,19.6,29.94,WNW,291,0.0,0.0,76,0.00,,,0.00,Wunderground v.1.15,2013-01-31 13:32:00,
2013-01-31 08:38:00,26.0,20.7,29.95,WNW,282,2.0,3.0,80,0.00,,,0.00,Wunderground v.1.15,2013-01-31 13:38:00,
2013-01-31 08:44:00,25.8,21.1,29.95,West,259,2.0,4.0,82,0.00,,,0.00,Wunderground v.1.15,2013-01-31 13:44:00,
2013-01-31 08:50:00,25.7,21.3,29.96,WSW,253,2.0,2.0,83,0.00,,,0.00,Wunderground v.1.15,2013-01-31 13:50:00,
2013-01-31 08:56:00,25.7,21.5,29.96,WSW,253,1.0,2.0,84,0.00,,,0.00,Wunderground v.1.15,2013-01-31 13:56:00,
2013-01-31 09:02:00,25.8,21.6,29.97,WSW,252,2.0,3.0,84,0.00,,,0.00,Wunderground v.1.15,2013-01-31 14:02:00,
2013-01-31 09:08:00,26.0,21.8,29.96,SW,229,2.0,4.0,84,0.00,,,0.00,Wunderground v.1.15,2013-01-31 14:08:00,
2013-01-31 09:14:00,26.2,22.0,29.97,SW,236,3.0,4.0,84,0.00,,,0.00,Wunderground v.1.15,2013-01-31 14:14:00,
2013-01-31 09:20:00,26.5,21.7,29.97,WSW,244,4.0,4.0,82,0.00,,,0.00,Wunderground v.1.15,2013-01-31 14:20:00,
2013-01-31 09:26:00,26.9,22.1,29.97,WSW,253,4.0,4.0,82,0.00,,,0.00,Wunderground v.1.15,2013-01-31 14:26:00,
2013-01-31 09:32:00,27.2,22.1,29.97,WSW,258,3.0,5.0,81,0.00,,,0.00,Wunderground v.1.15,2013-01-31 14:32:00,
2013-01-31 09:38:00,27.5,21.8,29.97,West,279,4.0,7.0,79,0.00,,,0.00,Wunderground v.1.15,2013-01-31 14:38:00,
2013-01-31 09:44:00,27.7,21.7,29.97,West,263,4.0,5.0,78,0.00,,,0.00,Wunderground v.1.15,2013-01-31 14:44:00,
2013-01-31 09:50:00,28.0,22.0,29.97,West,261,4.0,4.0,78,0.00,,,0.00,Wunderground v.1.15,2013-01-31 14:50:00,
2013-01-31 09:56:00,28.2,21.6,29.97,West,274,4.0,6.0,76,0.00,,,0.00,Wunderground v.1.15,2013-01-31 14:56:00,
2013-01-31 10:04:00,28.3,21.7,29.98,West,266,5.0,8.0,76,0.00,,,0.00,Wunderground v.1.15,2013-01-31 15:04:00,
2013-01-31 10:10:00,28.4,21.8,29.97,West,274,5.0,6.0,76,0.00,,,0.00,Wunderground v.1.15,2013-01-31 15:10:00,
2013-01-31 10:16:00,28.5,21.9,29.98,SW,233,6.0,10.0,76,0.00,,,0.00,Wunderground v.1.15,2013-01-31 15:16:00,
2013-01-31 10:22:00,28.6,22.0,29.98,SW,230,6.0,6.0,76,0.00,,,0.00,Wunderground v.1.15,2013-01-31 15:22:00,
2013-01-31 10:28:00,28.5,22.2,29.98,SW,234,6.0,8.0,77,0.00,,,0.00,Wunderground v.1.15,2013-01-31 15:28:00,
2013-01-31 10:34:00,28.6,22.3,29.99,SW,229,6.0,8.0,77,0.00,,,0.00,Wunderground v.1.15,2013-01-31 15:34:00,
2013-01-31 10:40:00,28.5,22.2,29.99,SW,230,7.0,9.0,77,0.00,,,0.00,Wunderground v.1.15,2013-01-31 15:40:00,
2013-01-31 10:46:00,28.6,22.6,29.99,West,277,7.0,10.0,78,0.00,,,0.00,Wunderground v.1.15,2013-01-31 15:46:00,
2013-01-31 10:52:00,28.6,22.6,29.99,West,266,7.0,7.0,78,0.00,,,0.00,Wunderground v.1.15,2013-01-31 15:52:00,
2013-01-31 10:58:00,28.7,23.0,29.99,West,272,5.0,7.0,79,0.00,,,0.00,Wunderground v.1.15,2013-01-31 15:58:00,
2013-01-31 11:06:00,28.8,22.8,30.00,WSW,258,5.0,6.0,78,0.00,,,0.00,Wunderground v.1.15,2013-01-31 16:06:00,
2013-01-31 11:12:00,29.0,22.7,30.00,West,269,5.0,6.0,77,0.00,,,0.00,Wunderground v.1.15,2013-01-31 16:12:00,
2013-01-31 11:18:00,29.3,22.4,30.00,West,278,5.0,6.0,75,0.00,,,0.00,Wunderground v.1.15,2013-01-31 16:18:00,
2013-01-31 11:24:00,29.8,22.2,30.00,West,266,5.0,7.0,73,0.00,,,0.00,Wunderground v.1.15,2013-01-31 16:24:00,
2013-01-31 11:30:00,30.0,21.7,30.00,WSW,256,7.0,9.0,71,0.00,,,0.00,Wunderground v.1.15,2013-01-31 16:30:00,
2013-01-31 11:36:00,30.1,21.5,30.00,WSW,238,9.0,16.0,70,0.00,,,0.00,Wunderground v.1.15,2013-01-31 16:36:00,
2013-01-31 11:42:00,30.3,20.6,30.00,West,263,9.0,9.0,67,0.00,,,0.00,Wunderground v.1.15,2013-01-31 16:42:00,
2013-01-31 11:48:00,30.3,20.6,30.01,WSW,249,9.0,9.0,67,0.00,,,0.00,Wunderground v.1.15,2013-01-31 16:48:00,
2013-01-31 11:54:00,30.3,21.3,30.01,West,274,8.0,10.0,69,0.00,,,0.00,Wunderground v.1.15,2013-01-31 16:54:00,
2013-01-31 12:00:00,30.5,21.5,30.01,WSW,254,6.0,6.0,69,0.00,,,0.00,Wunderground v.1.15,2013-01-31 17:00:00,
2013-01-31 12:06:00,30.5,21.9,30.01,WNW,286,6.0,8.0,70,0.00,,,0.00,Wunderground v.1.15,2013-01-31 17:06:00,
2013-01-31 12:12:00,30.4,21.8,30.01,SW,218,6.0,12.0,70,0.00,,,0.00,Wunderground v.1.15,2013-01-31 17:12:00,
2013-01-31 12:18:00,30.2,21.6,30.01,West,262,7.0,12.0,70,0.00,,,0.00,Wunderground v.1.15,2013-01-31 17:18:00,
2013-01-31 12:24:00,30.0,21.4,30.01,WSW,253,8.0,10.0,70,0.00,,,0.00,Wunderground v.1.15,2013-01-31 17:24:00,
2013-01-31 12:30:00,30.1,21.8,30.00,WSW,252,7.0,7.0,71,0.00,,,0.00,Wunderground v.1.15,2013-01-31 17:30:00,
2013-01-31 12:36:00,30.5,21.9,30.00,West,267,7.0,9.0,70,0.00,,,0.00,Wunderground v.1.15,2013-01-31 17:36:00,
2013-01-31 12:42:00,30.7,21.7,30.00,WSW,246,8.0,13.0,69,0.00,,,0.00,Wunderground v.1.15,2013-01-31 17:42:00,
2013-01-31 12:48:00,31.0,22.4,30.00,West,279,8.0,13.0,70,0.00,,,0.00,Wunderground v.1.15,2013-01-31 17:48:00,
2013-01-31 12:54:00,31.0,22.4,30.00,West,259,8.0,8.0,70,0.00,,,0.00,Wunderground v.1.15,2013-01-31 17:54:00,
2013-01-31 13:00:00,31.2,22.5,30.00,West,274,7.0,7.0,70,0.00,,,0.00,Wunderground v.1.15,2013-01-31 18:00:00,
2013-01-31 13:06:00,31.5,23.2,29.99,WSW,250,6.0,12.0,71,0.00,,,0.00,Wunderground v.1.15,2013-01-31 18:06:00,
2013-01-31 13:12:00,31.7,23.0,29.99,West,260,6.0,6.0,70,0.00,,,0.00,Wunderground v.1.15,2013-01-31 18:12:00,
2013-01-31 13:18:00,31.9,22.5,29.99,WSW,250,8.0,14.0,68,0.00,,,0.00,Wunderground v.1.15,2013-01-31 18:18:00,
2013-01-31 13:24:00,31.7,23.0,29.99,West,261,8.0,9.0,70,0.00,,,0.00,Wunderground v.1.15,2013-01-31 18:24:00,
2013-01-31 13:30:00,31.9,23.2,29.99,West,261,6.0,6.0,70,0.00,,,0.00,Wunderground v.1.15,2013-01-31 18:30:00,
2013-01-31 13:36:00,32.0,23.7,29.99,WSW,251,7.0,7.0,71,0.00,,,0.00,Wunderground v.1.15,2013-01-31 18:36:00,
2013-01-31 13:42:00,32.9,25.2,29.98,WSW,250,6.0,6.0,73,0.00,,,0.00,Wunderground v.1.15,2013-01-31 18:42:00,
2013-01-31 13:49:00,33.5,25.1,29.98,West,267,5.0,8.0,71,0.00,,,0.00,Wunderground v.1.15,2013-01-31 18:49:00,
2013-01-31 13:54:00,33.1,23.7,29.98,WSW,237,7.0,7.0,68,0.00,,,0.00,Wunderground v.1.15,2013-01-31 18:54:00,
2013-01-31 14:00:00,32.5,23.8,29.98,WSW,253,7.0,7.0,70,0.00,,,0.00,Wunderground v.1.15,2013-01-31 19:00:00,
2013-01-31 14:06:00,32.1,23.4,29.98,West,262,6.0,7.0,70,0.00,,,0.00,Wunderground v.1.15,2013-01-31 19:06:00,
2013-01-31 14:12:00,32.0,24.0,29.97,WSW,239,6.0,6.0,72,0.00,,,0.00,Wunderground v.1.15,2013-01-31 19:12:00,
2013-01-31 14:18:00,32.4,24.4,29.97,WSW,240,5.0,7.0,72,0.00,,,0.00,Wunderground v.1.15,2013-01-31 19:18:00,
2013-01-31 14:24:00,32.3,23.9,29.97,West,270,6.0,10.0,71,0.00,,,0.00,Wunderground v.1.15,2013-01-31 19:24:00,
2013-01-31 14:30:00,32.0,23.7,29.97,WSW,249,6.0,6.0,71,0.00,,,0.00,Wunderground v.1.15,2013-01-31 19:30:00,
2013-01-31 14:36:00,31.9,23.9,29.97,WSW,248,6.0,8.0,72,0.00,,,0.00,Wunderground v.1.15,2013-01-31 19:36:00,
2013-01-31 14:42:00,31.8,23.8,29.97,West,260,7.0,9.0,72,0.00,,,0.00,Wunderground v.1.15,2013-01-31 19:42:00,
2013-01-31 14:49:00,31.7,23.4,29.97,West,268,7.0,9.0,71,0.00,,,0.00,Wunderground v.1.15,2013-01-31 19:49:00,
2013-01-31 14:54:00,31.8,23.5,29.97,West,263,7.0,7.0,71,0.00,,,0.00,Wunderground v.1.15,2013-01-31 19:54:00,
2013-01-31 15:00:00,31.9,22.9,29.97,West,259,7.0,7.0,69,0.00,,,0.00,Wunderground v.1.15,2013-01-31 20:00:00,
2013-01-31 15:06:00,32.0,23.3,29.97,WSW,241,8.0,8.0,70,0.00,,,0.00,Wunderground v.1.15,2013-01-31 20:06:00,
2013-01-31 15:12:00,32.0,23.7,29.97,SW,231,6.0,7.0,71,0.00,,,0.00,Wunderground v.1.15,2013-01-31 20:12:00,
2013-01-31 15:18:00,32.3,23.9,29.97,West,261,5.0,11.0,71,0.00,,,0.00,Wunderground v.1.15,2013-01-31 20:18:00,
2013-01-31 15:24:00,32.3,23.9,29.97,SW,225,6.0,7.0,71,0.00,,,0.00,Wunderground v.1.15,2013-01-31 20:24:00,
2013-01-31 15:30:00,32.2,23.8,29.97,WSW,246,6.0,6.0,71,0.00,,,0.00,Wunderground v.1.15,2013-01-31 20:30:00,
2013-01-31 15:36:00,32.0,24.0,29.97,West,265,6.0,7.0,72,0.00,,,0.00,Wunderground v.1.15,2013-01-31 20:36:00,
2013-01-31 15:42:00,31.9,24.2,29.96,WSW,252,6.0,6.0,73,0.00,,,0.00,Wunderground v.1.15,2013-01-31 20:42:00,
2013-01-31 15:48:00,32.0,24.0,29.96,WSW,256,5.0,6.0,72,0.00,,,0.00,Wunderground v.1.15,2013-01-31 20:48:00,
2013-01-31 15:54:00,32.0,24.0,29.96,WSW,257,7.0,12.0,72,0.00,,,0.00,Wunderground v.1.15,2013-01-31 20:54:00,
2013-01-31 16:00:00,32.1,24.4,29.96,WSW,252,6.0,6.0,73,0.00,,,0.00,Wunderground v.1.15,2013-01-31 21:00:00,
2013-01-31 16:06:00,32.1,24.4,29.97,WSW,243,5.0,12.0,73,0.00,,,0.00,Wunderground v.1.15,2013-01-31 21:06:00,
2013-01-31 16:12:00,32.2,24.5,29.96,SW,234,6.0,10.0,73,0.00,,,0.00,Wunderground v.1.15,2013-01-31 21:12:00,
2013-01-31 16:18:00,31.9,24.9,29.96,West,267,7.0,10.0,75,0.00,,,0.00,Wunderground v.1.15,2013-01-31 21:18:00,
2013-01-31 16:24:00,31.5,25.4,29.97,West,263,7.0,7.0,78,0.00,,,0.00,Wunderground v.1.15,2013-01-31 21:24:00,
2013-01-31 16:30:00,31.3,26.1,29.98,WSW,245,6.0,6.0,81,0.00,,,0.00,Wunderground v.1.15,2013-01-31 21:30:00,
2013-01-31 16:36:00,31.2,26.6,29.98,West,263,4.0,6.0,83,0.00,,,0.00,Wunderground v.1.15,2013-01-31 21:36:00,
2013-01-31 16:42:00,31.1,26.5,29.98,SSW,210,3.0,4.0,83,0.00,,,0.00,Wunderground v.1.15,2013-01-31 21:42:00,
2013-01-31 16:48:00,31.2,26.6,29.97,West,281,4.0,4.0,83,0.00,,,0.00,Wunderground v.1.15,2013-01-31 21:48:00,
2013-01-31 16:54:00,31.4,26.5,29.97,WSW,255,4.0,5.0,82,0.00,,,0.00,Wunderground v.1.15,2013-01-31 21:54:00,
2013-01-31 17:00:00,31.4,25.9,29.97,West,265,5.0,5.0,80,0.00,,,0.00,Wunderground v.1.15,2013-01-31 22:00:00,
2013-01-31 17:06:00,31.4,25.6,29.97,WSW,247,6.0,6.0,79,0.00,,,0.00,Wunderground v.1.15,2013-01-31 22:06:00,
2013-01-31 17:12:00,31.4,25.6,29.97,WSW,258,5.0,9.0,79,0.00,,,0.00,Wunderground v.1.15,2013-01-31 22:12:00,
2013-01-31 17:18:00,31.4,25.6,29.98,WSW,242,4.0,9.0,79,0.00,,,0.00,Wunderground v.1.15,2013-01-31 22:18:00,
2013-01-31 17:24:00,31.2,26.0,29.98,WSW,248,4.0,5.0,81,0.00,,,0.00,Wunderground v.1.15,2013-01-31 22:24:00,
2013-01-31 17:30:00,31.1,26.0,29.98,WSW,255,5.0,6.0,81,0.00,,,0.00,Wunderground v.1.15,2013-01-31 22:30:00,
2013-01-31 17:36:00,30.8,26.2,29.98,West,265,6.0,6.0,83,0.00,,,0.00,Wunderground v.1.15,2013-01-31 22:36:00,
2013-01-31 17:42:00,30.6,26.3,29.98,West,263,4.0,5.0,84,0.00,,,0.00,Wunderground v.1.15,2013-01-31 22:42:00,
2013-01-31 17:49:00,30.3,26.3,29.97,West,265,4.0,5.0,85,0.00,,,0.00,Wunderground v.1.15,2013-01-31 22:49:00,
2013-01-31 17:54:00,30.2,26.5,29.98,WSW,250,4.0,5.0,86,0.00,,,0.00,Wunderground v.1.15,2013-01-31 22:54:00,
2013-01-31 18:00:00,30.2,26.8,29.97,WSW,254,3.0,3.0,87,0.00,,,0.00,Wunderground v.1.15,2013-01-31 23:00:00,
2013-01-31 18:06:00,30.1,26.7,29.97,WSW,254,4.0,4.0,87,0.00,,,0.00,Wunderground v.1.15,2013-01-31 23:06:00,
2013-01-31 18:12:00,30.1,27.0,29.97,West,266,4.0,4.0,88,0.00,,,0.00,Wunderground v.1.15,2013-01-31 23:12:00,
2013-01-31 18:18:00,29.9,27.1,29.98,West,271,2.0,4.0,89,0.00,,,0.00,Wunderground v.1.15,2013-01-31 23:18:00,
2013-01-31 18:24:00,29.8,27.2,29.98,WNW,287,2.0,2.0,90,0.00,,,0.00,Wunderground v.1.15,2013-01-31 23:24:00,
2013-01-31 18:30:00,29.6,27.3,29.98,West,262,3.0,3.0,91,0.00,,,0.00,Wunderground v.1.15,2013-01-31 23:30:00,
2013-01-31 18:36:00,29.4,27.4,29.98,WSW,257,3.0,3.0,92,0.00,,,0.00,Wunderground v.1.15,2013-01-31 23:36:00,
2013-01-31 18:42:00,29.4,27.4,29.97,WNW,286,3.0,9.0,92,0.00,,,0.00,Wunderground v.1.15,2013-01-31 23:42:00,
2013-01-31 18:50:00,29.2,27.4,29.98,West,266,4.0,4.0,93,0.00,,,0.00,Wunderground v.1.15,2013-01-31 23:50:00,
2013-01-31 18:56:00,29.2,27.4,29.98,West,264,3.0,5.0,93,0.00,,,0.00,Wunderground v.1.15,2013-01-31 23:56:00,
2013-01-31 19:02:00,29.1,27.3,29.98,West,259,3.0,3.0,93,0.00,,,0.00,Wunderground v.1.15,2013-02-01 00:02:00,
2013-01-31 19:08:00,29.1,27.3,29.98,West,265,4.0,7.0,93,0.00,,,0.00,Wunderground v.1.15,2013-02-01 00:08:00,
2013-01-31 19:14:00,29.1,27.6,29.98,WSW,254,5.0,5.0,94,0.00,,,0.00,Wunderground v.1.15,2013-02-01 00:14:00,
2013-01-31 19:20:00,29.1,27.6,29.99,WNW,288,4.0,4.0,94,0.00,,,0.00,Wunderground v.1.15,2013-02-01 00:20:00,
2013-01-31 19:26:00,29.1,27.6,29.99,WNW,288,2.0,7.0,94,0.00,,,0.00,Wunderground v.1.15,2013-02-01 00:26:00,
2013-01-31 19:32:00,29.0,27.5,29.99,WNW,302,4.0,6.0,94,0.00,,,0.00,Wunderground v.1.15,2013-02-01 00:32:00,
2013-01-31 19:38:00,28.9,27.4,30.00,West,268,5.0,6.0,94,0.00,,,0.00,Wunderground v.1.15,2013-02-01 00:38:00,
2013-01-31 19:44:00,27.8,26.0,30.01,West,275,7.0,11.0,93,0.00,,,0.00,Wunderground v.1.15,2013-02-01 00:44:00,
2013-01-31 19:50:00,27.1,25.3,30.02,NNW,329,7.0,7.0,93,0.00,,,0.00,Wunderground v.1.15,2013-02-01 00:50:00,
2013-01-31 19:56:00,25.7,24.0,30.02,North,350,7.0,8.0,93,0.00,,,0.00,Wunderground v.1.15,2013-02-01 00:56:00,
2013-01-31 20:02:00,25.0,23.3,30.03,WNW,295,7.0,11.0,93,0.00,,,0.00,Wunderground v.1.15,2013-02-01 01:02:00,
2013-01-31 20:08:00,24.2,22.5,30.04,NW,304,7.0,11.0,93,0.00,,,0.00,Wunderground v.1.15,2013-02-01 01:08:00,
2013-01-31 20:14:00,23.8,22.1,30.05,NNW,329,7.0,7.0,93,0.00,,,0.00,Wunderground v.1.15,2013-02-01 01:14:00,
2013-01-31 20:20:00,23.0,21.3,30.05,NW,319,7.0,7.0,93,0.00,,,0.00,Wunderground v.1.15,2013-02-01 01:20:00,
2013-01-31 20:26:00,22.6,20.9,30.05,WNW,287,7.0,7.0,93,0.00,,,0.00,Wunderground v.1.15,2013-02-01 01:26:00,
2013-01-31 20:32:00,22.5,20.8,30.06,NW,305,7.0,7.0,93,0.00,,,0.00,Wunderground v.1.15,2013-02-01 01:32:00,
2013-01-31 20:38:00,22.4,20.7,30.07,West,281,6.0,7.0,93,0.00,,,0.00,Wunderground v.1.15,2013-02-01 01:38:00,
2013-01-31 20:44:00,21.8,20.1,30.08,West,267,7.0,15.0,93,0.00,,,0.00,Wunderground v.1.15,2013-02-01 01:44:00,
2013-01-31 20:50:00,21.3,19.3,30.08,NW,306,8.0,15.0,92,0.00,,,0.00,Wunderground v.1.15,2013-02-01 01:50:00,
2013-01-31 20:56:00,20.9,18.9,30.08,NW,319,7.0,15.0,92,0.00,,,0.00,Wunderground v.1.15,2013-02-01 01:56:00,
2013-01-31 21:02:00,20.8,18.8,30.09,NW,319,7.0,7.0,92,0.00,,,0.00,Wunderground v.1.15,2013-02-01 02:02:00,
2013-01-31 21:08:00,20.4,18.2,30.09,NW,309,8.0,13.0,91,0.00,,,0.00,Wunderground v.1.15,2013-02-01 02:08:00,
2013-01-31 21:14:00,20.1,17.6,30.10,West,281,8.0,9.0,90,0.00,,,0.00,Wunderground v.1.15,2013-02-01 02:14:00,
2013-01-31 21:20:00,19.9,17.4,30.10,NW,309,8.0,8.0,90,0.00,,,0.00,Wunderground v.1.15,2013-02-01 02:20:00,
2013-01-31 21:26:00,19.8,17.3,30.10,WNW,285,8.0,8.0,90,0.00,,,0.00,Wunderground v.1.15,2013-02-01 02:26:00,
2013-01-31 21:32:00,19.7,17.0,30.10,WNW,292,7.0,11.0,89,0.00,,,0.00,Wunderground v.1.15,2013-02-01 02:32:00,
2013-01-31 21:38:00,19.3,16.3,30.11,NNW,330,7.0,11.0,88,0.00,,,0.00,Wunderground v.1.15,2013-02-01 02:38:00,
2013-01-31 21:44:00,18.9,15.9,30.12,NNW,335,6.0,6.0,88,0.00,,,0.00,Wunderground v.1.15,2013-02-01 02:44:00,
2013-01-31 21:50:00,18.3,15.1,30.13,WNW,298,6.0,12.0,87,0.00,,,0.00,Wunderground v.1.15,2013-02-01 02:50:00,
2013-01-31 21:56:00,17.7,14.2,30.13,WNW,288,5.0,12.0,86,0.00,,,0.00,Wunderground v.1.15,2013-02-01 02:56:00,
2013-01-31 22:02:00,17.2,13.7,30.14,NW,324,5.0,9.0,86,0.00,,,0.00,Wunderground v.1.15,2013-02-01 03:02:00,
2013-01-31 22:08:00,16.8,12.8,30.14,WNW,292,7.0,14.0,84,0.00,,,0.00,Wunderground v.1.15,2013-02-01 03:08:00,
2013-01-31 22:14:00,16.4,12.1,30.15,NW,309,7.0,7.0,83,0.00,,,0.00,Wunderground v.1.15,2013-02-01 03:14:00,
2013-01-31 22:20:00,16.2,11.9,30.16,NW,316,6.0,9.0,83,0.00,,,0.00,Wunderground v.1.15,2013-02-01 03:20:00,
2013-01-31 22:26:00,15.9,11.4,30.16,WNW,294,6.0,11.0,82,0.00,,,0.00,Wunderground v.1.15,2013-02-01 03:26:00,
2013-01-31 22:32:00,15.8,11.0,30.17,NW,311,7.0,10.0,81,0.00,,,0.00,Wunderground v.1.15,2013-02-01 03:32:00,
2013-01-31 22:38:00,15.5,10.4,30.17,West,275,7.0,10.0,80,0.00,,,0.00,Wunderground v.1.15,2013-02-01 03:38:00,
2013-01-31 22:44:00,15.3,10.2,30.18,NW,324,6.0,8.0,80,0.00,,,0.00,Wunderground v.1.15,2013-02-01 03:44:00,
2013-01-31 22:50:00,15.2,10.1,30.18,NW,306,7.0,7.0,80,0.00,,,0.00,Wunderground v.1.15,2013-02-01 03:50:00,
2013-01-31 22:56:00,14.9,9.6,30.18,West,261,7.0,7.0,79,0.00,,,0.00,Wunderground v.1.15,2013-02-01 03:56:00,
2013-01-31 23:02:00,14.8,9.5,30.19,NW,308,6.0,11.0,79,0.00,,,0.00,Wunderground v.1.15,2013-02-01 04:02:00,
2013-01-31 23:08:00,14.6,9.0,30.19,NNW,331,6.0,13.0,78,0.00,,,0.00,Wunderground v.1.15,2013-02-01 04:08:00,
2013-01-31 23:14:00,14.6,9.3,30.19,NNW,341,6.0,7.0,79,0.00,,,0.00,Wunderground v.1.15,2013-02-01 04:14:00,
2013-01-31 23:20:00,14.7,9.1,30.19,WNW,292,6.0,6.0,78,0.00,,,0.00,Wunderground v.1.15,2013-02-01 04:20:00,
2013-01-31 23:26:00,14.8,9.5,30.19,WNW,299,5.0,9.0,79,0.00,,,0.00,Wunderground v.1.15,2013-02-01 04:26:00,
2013-01-31 23:32:00,15.0,9.4,30.20,WNW,289,5.0,9.0,78,0.00,,,0.00,Wunderground v.1.15,2013-02-01 04:32:00,
2013-01-31 23:38:00,15.1,9.5,30.21,NW,315,6.0,14.0,78,0.00,,,0.00,Wunderground v.1.15,2013-02-01 04:38:00,
2013-01-31 23:44:00,15.1,9.2,30.21,WNW,288,6.0,9.0,77,0.00,,,0.00,Wunderground v.1.15,2013-02-01 04:44:00,
2013-01-31 23:50:00,15.1,9.2,30.22,WNW,293,7.0,7.0,77,0.00,,,0.00,Wunderground v.1.15,2013-02-01 04:50:00,
2013-01-31 23:56:00,15.1,9.2,30.22,North,5,7.0,16.0,77,0.00,,,0.00,Wunderground v.1.15,2013-02-01 04:56:00,